Metropolis, IL

9:13 AM CST on December 07, 2016 (GMT -0600)
Metropolis

Weather History for KM30 - January, 2013

Change the Weather History Date:

Sunday, January 27, 2013

  Actual Average (KPAH) Record (KPAH)
Temperature  
Mean Temperature 40 °F 35 °F  
Max Temperature 52 °F 44 °F 70 °F (1947)
Min Temperature 28 °F 26 °F -5 °F (1940)
Degree Days  
Heating Degree Days 25 30  
Month to date heating degree days 827  
Since 1 July heating degree days 2458  
Cooling Degree Days 0 0  
Month to date cooling degree days 0  
Year to date cooling degree days 0  
Moisture  
Dew Point 36 °F    
Average Humidity 89    
Maximum Humidity 100    
Minimum Humidity 68    
Precipitation  
Precipitation 0.14 in 0.12 in 2.49 in (2009)
Month to date precipitation 3.18  
Year to date precipitation 3.18  
Snow  
Snow 0.00 in 0.10 in 3.80 in (1985)
Month to date snowfall 2.5  
Since 1 July snowfall 4.8  
Snow Depth -    
Sea Level Pressure  
Sea Level Pressure 30.21 in    
Wind  
Wind Speed 4 mph (ESE)    
Max Wind Speed 9 mph    
Max Gust Speed 17 mph    
Visibility 7 miles    
Events Rain    
T = Trace of Precipitation, MM = Missing Value Source: NWS Daily Summary

Daily Weather History Graph

Daily Weather History Graph

Search for Another Location

Airport or City:

Trip Planner

Search our weather history database for the weather conditions in past years. The results will help you decide how hot, cold, wet, or windy it might be!

Date:

Astronomy

Jan. 27, 2013 Rise Set
Actual Time 7:01 AM CST 5:14 PM CST
Civil Twilight 6:33 AM CST 5:42 PM CST
Nautical Twilight 6:02 AM CST 6:13 PM CST
Astronomical Twilight 5:31 AM CST 6:44 PM CST
Moon 6:06 PM CST (1/27) 6:56 AM CST (1/27)
Length of Visible Light 11h 08m
Length of Day
10h 13m
Full, 100% of the Moon is Illuminated
Jan 27
Full
Feb 3
Last Quarter
Feb 10
New
Feb 17
First Quarter
Feb 25
Full

Hourly Weather History & Observations

Time (CST) Temp. Windchill Dew Point Humidity Pressure Visibility Wind Dir Wind Speed Gust Speed Precip Events Conditions
12:15 AM 29.3 °F - 19.9 °F 68% 30.33 in 10.0 mi Calm Calm - N/A   Clear
12:35 AM 29.3 °F - 20.3 °F 69% 30.33 in 10.0 mi Calm Calm - N/A   Clear
12:55 AM 28.8 °F 25.0 °F 20.3 °F 71% 30.31 in 10.0 mi East 3.5 mph - N/A   Clear
1:15 AM 28.9 °F 25.2 °F 20.5 °F 71% 30.31 in 10.0 mi East 3.5 mph - N/A   Clear
1:35 AM 29.1 °F 25.4 °F 20.8 °F 71% 30.31 in 10.0 mi East 3.5 mph - N/A   Clear
1:55 AM 29.1 °F - 21.2 °F 72% 30.31 in 10.0 mi Calm Calm - N/A   Clear
2:15 AM 29.1 °F 25.4 °F 21.7 °F 74% 30.31 in 10.0 mi East 3.5 mph - N/A   Clear
2:35 AM 28.8 °F 23.7 °F 21.9 °F 76% 30.31 in 10.0 mi East 4.6 mph - N/A   Clear
2:55 AM 28.6 °F - 22.3 °F 77% 30.31 in 10.0 mi Calm Calm - N/A   Clear
3:15 AM 28.9 °F 25.2 °F 22.8 °F 78% 30.30 in 10.0 mi East 3.5 mph - N/A   Clear
3:35 AM 29.1 °F 25.4 °F 23.4 °F 79% 30.31 in 10.0 mi ESE 3.5 mph - N/A   Scattered Clouds
3:55 AM 28.9 °F - 23.7 °F 81% 30.30 in 10.0 mi Calm Calm - N/A   Mostly Cloudy
4:15 AM 29.7 °F 26.1 °F 24.4 °F 81% 30.29 in 10.0 mi East 3.5 mph - N/A   Mostly Cloudy
4:35 AM 30.2 °F 25.4 °F 25.3 °F 82% 30.28 in 10.0 mi East 4.6 mph - N/A   Mostly Cloudy
4:55 AM 31.1 °F 26.4 °F 26.4 °F 83% 30.28 in 10.0 mi East 4.6 mph - N/A   Overcast
5:15 AM 31.8 °F 27.3 °F 27.1 °F 83% 30.28 in 10.0 mi East 4.6 mph - N/A   Overcast
5:35 AM 32.0 °F - 27.5 °F 83% 30.29 in 10.0 mi Calm Calm - N/A   Overcast
5:55 AM 32.0 °F 26.4 °F 27.9 °F 85% 30.28 in 10.0 mi East 5.8 mph - N/A   Overcast
6:15 AM 32.4 °F 26.9 °F 28.4 °F 85% 30.28 in 7.0 mi East 5.8 mph - N/A   Overcast
6:35 AM 32.7 °F 28.3 °F 28.4 °F 84% 30.28 in 7.0 mi East 4.6 mph - N/A   Overcast
6:55 AM 32.9 °F 29.8 °F 28.4 °F 84% 30.30 in 7.0 mi East 3.5 mph - N/A   Overcast
7:15 AM 33.1 °F 30.0 °F 29.1 °F 85% 30.30 in 7.0 mi East 3.5 mph - N/A   Overcast
7:55 AM 33.1 °F 28.7 °F 30.0 °F 89% 30.29 in 5.0 mi ESE 4.6 mph - N/A Rain Light Rain
8:15 AM 33.4 °F 29.1 °F 30.2 °F 88% 30.29 in 5.0 mi East 4.6 mph - N/A   Light Drizzle
8:35 AM 33.8 °F 28.6 °F 30.7 °F 89% 30.29 in 5.0 mi ESE 5.8 mph - N/A Rain Light Rain
8:55 AM 34.3 °F 28.4 °F 31.5 °F 89% 30.29 in 5.0 mi ESE 6.9 mph - N/A   Overcast
9:15 AM 34.9 °F 29.9 °F 32.0 °F 89% 30.29 in 5.0 mi East 5.8 mph - N/A   Overcast
9:35 AM 35.2 °F 30.3 °F 32.0 °F 88% 30.29 in 5.0 mi East 5.8 mph - N/A Rain Light Rain
9:55 AM 35.6 °F 31.7 °F 32.4 °F 88% 30.29 in 5.0 mi East 4.6 mph - N/A Rain Rain
10:15 AM 36.0 °F 32.1 °F 33.6 °F 91% 30.29 in 4.0 mi East 4.6 mph - 0.01 in Rain Light Rain
10:35 AM 36.7 °F 32.9 °F 34.7 °F 93% 30.29 in 5.0 mi East 4.6 mph - 0.01 in Rain Light Rain
10:55 AM 36.9 °F 32.2 °F 34.7 °F 92% 30.27 in 5.0 mi ESE 5.8 mph - 0.01 in Rain Rain
11:15 AM 37.0 °F 33.3 °F 35.6 °F 95% 30.27 in 4.0 mi ESE 4.6 mph - 0.01 in Rain Light Rain
11:35 AM 37.0 °F 32.4 °F 36.5 °F 98% 30.26 in 3.0 mi East 5.8 mph - 0.02 in   Drizzle
11:55 AM 37.2 °F 33.6 °F 37.2 °F 100% 30.25 in 2.0 mi ESE 4.6 mph - 0.03 in Rain Light Rain
12:15 PM 37.4 °F 33.8 °F 37.4 °F 100% 30.24 in 2.5 mi ESE 4.6 mph - 0.02 in Rain Rain
12:35 PM 37.8 °F 33.3 °F 37.8 °F 100% 30.23 in 3.0 mi ESE 5.8 mph - 0.03 in Rain Light Rain
12:55 PM 38.5 °F 33.4 °F 38.5 °F 100% 30.21 in 3.0 mi ESE 6.9 mph - 0.04 in Rain Light Rain
1:15 PM 39.0 °F 34.8 °F 39.0 °F 100% 30.20 in 3.0 mi ESE 5.8 mph - 0.01 in Rain Rain
1:35 PM 39.4 °F 34.5 °F 39.4 °F 100% 30.18 in 2.5 mi ESE 6.9 mph - 0.03 in Rain Light Rain
1:55 PM 39.7 °F 35.6 °F 39.7 °F 100% 30.17 in 3.0 mi ESE 5.8 mph - 0.05 in Rain Light Rain
2:15 PM 40.3 °F 36.3 °F 40.3 °F 100% 30.17 in 3.0 mi ESE 5.8 mph - N/A Rain Rain
2:35 PM 41.0 °F 36.4 °F 41.0 °F 100% 30.17 in 3.0 mi SE 6.9 mph - N/A Rain Light Rain
2:55 PM 41.5 °F 37.1 °F 41.5 °F 100% 30.16 in 3.0 mi ESE 6.9 mph - N/A   Overcast
3:15 PM 41.9 °F 37.5 °F 41.9 °F 100% 30.16 in 4.0 mi ESE 6.9 mph - 0.01 in   Overcast
3:35 PM 42.6 °F 39.9 °F 42.6 °F 100% 30.16 in 4.0 mi ESE 4.6 mph - 0.01 in   Overcast
3:55 PM 43.0 °F 39.5 °F 43.0 °F 100% 30.15 in 5.0 mi ESE 5.8 mph - 0.01 in   Overcast
4:15 PM 43.2 °F 40.5 °F 43.2 °F 100% 30.16 in 5.0 mi ESE 4.6 mph - N/A   Overcast
4:35 PM 43.7 °F 41.1 °F 43.7 °F 100% 30.15 in 5.0 mi ESE 4.6 mph - N/A   Overcast
4:55 PM 43.7 °F 40.3 °F 43.7 °F 100% 30.15 in 5.0 mi ESE 5.8 mph - N/A   Overcast
5:15 PM 43.7 °F 41.1 °F 43.7 °F 100% 30.15 in 5.0 mi SE 4.6 mph - N/A   Overcast
5:35 PM 44.1 °F 40.8 °F 44.1 °F 100% 30.14 in 7.0 mi ESE 5.8 mph - N/A   Overcast
5:55 PM 44.1 °F 40.8 °F 44.1 °F 100% 30.13 in 7.0 mi ESE 5.8 mph - N/A   Overcast
6:15 PM 44.2 °F 41.8 °F 44.2 °F 100% 30.13 in 7.0 mi ESE 4.6 mph - N/A   Overcast
6:35 PM 44.6 °F 42.2 °F 44.6 °F 100% 30.13 in 10.0 mi ESE 4.6 mph - N/A   Mostly Cloudy
6:55 PM 45.0 °F 42.6 °F 44.8 °F 99% 30.13 in 10.0 mi ESE 4.6 mph - N/A   Overcast
7:15 PM 45.0 °F 41.2 °F 44.8 °F 99% 30.13 in 10.0 mi ESE 6.9 mph - N/A   Mostly Cloudy
7:35 PM 45.3 °F 42.3 °F 44.8 °F 98% 30.12 in 10.0 mi SE 5.8 mph - N/A   Mostly Cloudy
7:55 PM 45.5 °F 41.3 °F 44.8 °F 97% 30.11 in 10.0 mi SE 8.1 mph - N/A   Scattered Clouds
8:15 PM 45.9 °F 42.9 °F 45.0 °F 97% 30.11 in 10.0 mi SE 5.8 mph - N/A   Scattered Clouds
8:35 PM 45.7 °F 42.7 °F 44.8 °F 97% 30.11 in 10.0 mi SE 5.8 mph - N/A   Scattered Clouds
8:55 PM 45.5 °F 44.2 °F 44.8 °F 97% 30.10 in 10.0 mi SE 3.5 mph - N/A   Clear
9:15 PM 48.0 °F - 46.4 °F 94% 30.10 in 10.0 mi SSE 6.9 mph - N/A   Clear
9:35 PM 50.2 °F - 46.0 °F 86% 30.10 in 10.0 mi SSE 8.1 mph - N/A   Scattered Clouds
9:55 PM 50.5 °F - 46.4 °F 86% 30.10 in 10.0 mi South 6.9 mph - N/A   Scattered Clouds
10:15 PM 50.9 °F - 46.4 °F 85% 30.10 in 10.0 mi SSE 8.1 mph - N/A   Clear
10:35 PM 51.8 °F - 46.4 °F 82% 30.10 in 10.0 mi South 8.1 mph - N/A   Clear
10:55 PM 51.8 °F - 46.4 °F 82% 30.09 in 10.0 mi SSE 8.1 mph - N/A   Clear
11:15 PM 51.8 °F - 44.6 °F 76% 30.08 in 10.0 mi SSE 8.1 mph - N/A   Clear
11:35 PM 52.2 °F - 44.6 °F 75% 30.09 in 10.0 mi South 9.2 mph - N/A   Scattered Clouds
11:55 PM 52.7 °F - 45.0 °F 75% 30.09 in 10.0 mi South 6.9 mph 17.3 mph N/A Rain Light Rain